• Join FlightAware (Why Join?)
  • Login
  • US Flag GB Flag 
09:09 EDT


 

Airport Tracker/Info


-or-


 

Live Flight TrackerFlight Track Log ✈ N319EE ✈ 10-Oct-2013 ✈ KROC - KBGM

Flight Track Log - Related Links

Times and Time Zones

All times are in EDT time to prevent confusion due to time zone crossing. See the N319EE flight status page for this flight to view local times or setup timezone preferences in your user account.

Time Position Orientation Groundspeed Altitude Reporting Facility
EDT Latitude Longitude Course Direction KTS MPH feet Rate Location/Type
17:01 43.1322 -77.6275 63° Northeast 153 176 1,900  Level Cleveland Center
17:02 43.1103 -77.5725 119° Southeast 167 192 4,000 1,800 Climbing Cleveland Center
17:02 43.1097 -77.5742 245° Southwest 165 190 4,000 1,380 Level Cleveland Center
17:03 43.0764 -77.5114 126° Southeast 199 229 5,400 1,500 Climbing Cleveland Center
17:03 43.0706 -77.5036 136° Southeast 189 217 5,600 1,140 Climbing Cleveland Center
17:04 43.0411 -77.4472 126° Southeast 207 238 6,600 1,020 Climbing Cleveland Center
17:04 43.0358 -77.4392 132° Southeast 205 236 6,700 840 Climbing Cleveland Center
17:05 43.0039 -77.3797 126° Southeast 229 264 7,500 960 Climbing Cleveland Center
17:05 42.9969 -77.3700 134° Southeast 222 255 7,700 1,080 Climbing Cleveland Center
17:06 42.9625 -77.3111 129° Southeast 231 266 8,600 1,020 Climbing Cleveland Center
17:06 42.9578 -77.3000 120° Southeast 230 265 8,800 660 Climbing Cleveland Center
17:07 42.9183 -77.2286 127° Southeast 233 268 9,500 600 Climbing Cleveland Center
17:08 42.8769 -77.1536 127° Southeast 242 278 10,100 180 Climbing Cleveland Center
17:09 42.8347 -77.0775 127° Southeast 249 287 9,900 -60 Descending Cleveland Center
17:10 42.7844 -76.9875 127° Southeast 250 288 10,000  Climbing Cleveland Center
17:11 42.7425 -76.9133 128° Southeast 247 284 10,000  Level Cleveland Center
17:12 42.7019 -76.8389 127° Southeast 246 283 10,000  Level Cleveland Center
17:13 42.6619 -76.7644 126° Southeast 245 282 10,000  Level Cleveland Center
17:14 42.6211 -76.6894 126° Southeast 245 282 10,000 -60 Level Cleveland Center
17:15 42.5803 -76.6158 127° Southeast 244 281 9,900 -540 Descending Cleveland Center
17:16 42.5303 -76.5247 127° Southeast 249 287 9,000 -480 Descending Cleveland Center
17:17 42.4872 -76.4442 126° Southeast 260 299 9,000 -60 Level Cleveland Center
17:18 42.4433 -76.3647 127° Southeast 250 288 8,900 -600 Descending New York Center
17:19 42.4028 -76.2939 128° Southeast 250 288 7,800 -1,320 Descending New York Center
17:20 42.3644 -76.2233 126° Southeast 239 275 6,300 -1,500 Descending New York Center
17:21 42.3239 -76.1528 128° Southeast 239 275 4,800 -1,380 Descending New York Center
17:22 42.2872 -76.0908 129° Southeast 239 275 3,600 -1,020 Descending New York Center
17:23 42.2600 -76.0439 128° Southeast 202 232 2,800 -600 Descending New York Center
17:24 42.2272 -75.9881 128° Southeast 175 201 2,400 -420 Descending New York Center